When you browse on this site, cookies collect data to enhance your experience and personalize the content and advertising you see.
Visit our Privacy Policy to learn more. By continuing to use the site, you agree to this use of cookies and data.
  • In Sweden
  • List of Countries
  • For 7 days
  • Water Temperature
  • Weather Map
  • Weather Widgets
  • user-avatar
    Login

    Hourly Weather San Luis Potosí

    Today, 26 February, Wednesday

    Time Temperature Precipitation Wind Pressure Humidity
    00:00 +16°C° 0 mm 2 mps 608 mmHg 56%
    01:00 +15°C° 0 mm 2 mps 608 mmHg 69%
    02:00 +14°C° 0 mm 2 mps 607 mmHg 81%
    03:00 +14°C° 0 mm 2 mps 607 mmHg 85%
    04:00 +14°C° 0 mm 2 mps 608 mmHg 88%
    05:00 +14°C° 0 mm 2 mps 608 mmHg 91%
    06:00 +13°C° 0 mm 3 mps 609 mmHg 87%
    07:00 +13°C° 0 mm 3 mps 610 mmHg 83%
    08:00 +14°C° 0 mm 4 mps 611 mmHg 79%
    09:00 +14°C° 0 mm 4 mps 611 mmHg 74%
    10:00 +14°C° 0 mm 4 mps 612 mmHg 69%
    11:00 +14°C° 0 mm 5 mps 612 mmHg 64%
    12:00 +14°C° 0 mm 5 mps 612 mmHg 61%
    13:00 +14°C° 0 mm 6 mps 611 mmHg 58%
    14:00 +14°C° 0 mm 6 mps 611 mmHg 54%
    15:00 +13°C° 0 mm 5 mps 610 mmHg 57%
    16:00 +10°C° 0 mm 5 mps 610 mmHg 59%
    17:00 +8°C° 0 mm 4 mps 609 mmHg 61%
    18:00 +7°C° 0 mm 4 mps 610 mmHg 63%
    19:00 +5°C° 0 mm 3 mps 610 mmHg 65%
    20:00 +3°C° 0 mm 3 mps 610 mmHg 68%
    21:00 +3°C° 0 mm 3 mps 610 mmHg 68%
    22:00 +3°C° 0 mm 3 mps 611 mmHg 69%
    23:00 +3°C° 0 mm 2 mps 611 mmHg 69%

    Tomorrow, 27 February, Thursday

    Time Temperature Precipitation Wind Pressure Humidity
    00:00 +3°C° 0 mm 2 mps 611 mmHg 69%
    01:00 +3°C° 0 mm 2 mps 610 mmHg 70%
    02:00 +2°C° 0 mm 2 mps 610 mmHg 70%
    03:00 +2°C° 0 mm 2 mps 610 mmHg 70%
    04:00 +3°C° 0 mm 1 mps 610 mmHg 71%
    05:00 +2°C° 0 mm 1 mps 610 mmHg 71%
    06:00 +3°C° 0 mm 1 mps 610 mmHg 68%
    07:00 +4°C° 0 mm 1 mps 611 mmHg 64%
    08:00 +5°C° 0 mm 1 mps 611 mmHg 61%
    09:00 +8°C° 0 mm 1 mps 612 mmHg 56%
    10:00 +10°C° 0 mm 1 mps 612 mmHg 50%
    11:00 +13°C° 0 mm 2 mps 613 mmHg 44%
    12:00 +15°C° 0 mm 2 mps 613 mmHg 41%
    13:00 +17°C° 0 mm 2 mps 612 mmHg 38%
    14:00 +19°C° 0 mm 2 mps 612 mmHg 34%
    15:00 +18°C° 0 mm 2 mps 612 mmHg 35%
    16:00 +18°C° 0 mm 3 mps 611 mmHg 35%
    17:00 +17°C° 0 mm 4 mps 611 mmHg 36%
    18:00 +14°C° 0 mm 4 mps 611 mmHg 40%
    19:00 +13°C° 0 mm 3 mps 611 mmHg 45%
    20:00 +12°C° 0 mm 2 mps 611 mmHg 49%
    21:00 +10°C° 0 mm 2 mps 611 mmHg 51%
    22:00 +10°C° 0 mm 1 mps 611 mmHg 53%
    23:00 +10°C° 0 mm 1 mps 611 mmHg 55%

    Day after tomorrow, 28 February, Friday

    Time Temperature Precipitation Wind Pressure Humidity
    00:00 +9°C° 0 mm 1 mps 611 mmHg 57%
    01:00 +9°C° 0 mm 1 mps 611 mmHg 58%
    02:00 +8°C° 0 mm 0 mps 610 mmHg 59%
    03:00 +8°C° 0 mm 0 mps 610 mmHg 61%
    04:00 +7°C° 0 mm 0 mps 610 mmHg 62%
    05:00 +7°C° 0 mm 0 mps 610 mmHg 64%
    06:00 +9°C° 0 mm 0 mps 611 mmHg 59%
    07:00 +11°C° 0 mm 1 mps 612 mmHg 53%
    08:00 +12°C° 0 mm 1 mps 613 mmHg 48%
    09:00 +15°C° 0 mm 1 mps 614 mmHg 43%
    10:00 +17°C° 0 mm 2 mps 614 mmHg 38%
    11:00 +19°C° 0 mm 2 mps 615 mmHg 33%
    12:00 +20°C° 0 mm 3 mps 615 mmHg 32%
    13:00 +21°C° 0 mm 3 mps 614 mmHg 30%
    14:00 +22°C° 0 mm 4 mps 614 mmHg 28%
    15:00 +20°C° 0 mm 5 mps 614 mmHg 32%
    16:00 +19°C° 0 mm 6 mps 613 mmHg 36%
    17:00 +16°C° 0 mm 7 mps 613 mmHg 41%
    18:00 +14°C° 0 mm 6 mps 613 mmHg 50%
    19:00 +12°C° 0 mm 5 mps 613 mmHg 59%
    20:00 +10°C° 0 mm 3 mps 613 mmHg 69%
    21:00 +9°C° 0 mm 3 mps 613 mmHg 73%
    22:00 +8°C° 0 mm 3 mps 613 mmHg 78%
    23:00 +8°C° 0 mm 3 mps 613 mmHg 82%

    29 February, Saturday

    Time Temperature Precipitation Wind Pressure Humidity
    00:00 +7°C° 0 mm 2 mps 612 mmHg 82%
    01:00 +7°C° 0 mm 2 mps 612 mmHg 82%
    02:00 +6°C° 0 mm 2 mps 611 mmHg 82%
    03:00 +6°C° 0 mm 2 mps 611 mmHg 82%
    04:00 +7°C° 0 mm 1 mps 611 mmHg 82%
    05:00 +7°C° 0 mm 1 mps 612 mmHg 82%
    06:00 +8°C° 0 mm 1 mps 612 mmHg 77%
    07:00 +9°C° 0 mm 1 mps 613 mmHg 73%
    08:00 +9°C° 0 mm 1 mps 613 mmHg 68%
    09:00 +12°C° 0 mm 1 mps 614 mmHg 58%
    10:00 +15°C° 0 mm 1 mps 614 mmHg 48%
    11:00 +19°C° 0 mm 1 mps 615 mmHg 39%
    12:00 +21°C° 0 mm 1 mps 614 mmHg 34%
    13:00 +23°C° 0 mm 1 mps 614 mmHg 30%
    14:00 +25°C° 0 mm 1 mps 614 mmHg 25%
    15:00 +25°C° 0 mm 2 mps 613 mmHg 28%
    16:00 +24°C° 0 mm 3 mps 613 mmHg 31%
    17:00 +22°C° 0 mm 4 mps 612 mmHg 34%
    18:00 +20°C° 0 mm 3 mps 612 mmHg 44%
    19:00 +18°C° 0 mm 2 mps 611 mmHg 54%
    20:00 +15°C° 0 mm 2 mps 611 mmHg 64%
    21:00 +14°C° 0 mm 1 mps 611 mmHg 68%
    22:00 +14°C° 0 mm 1 mps 611 mmHg 73%
    23:00 +12°C° 0 mm 0 mps 611 mmHg 77%

    1 March, Sunday

    Time Temperature Precipitation Wind Pressure Humidity
    00:00 +12°C° 0 mm 0 mps 610 mmHg 76%
    01:00 +12°C° 0 mm 0 mps 610 mmHg 75%
    02:00 +13°C° 0 mm 1 mps 610 mmHg 74%
    03:00 +13°C° 0 mm 1 mps 610 mmHg 71%
    04:00 +13°C° 0 mm 1 mps 610 mmHg 68%
    05:00 +13°C° 0 mm 1 mps 610 mmHg 65%
    06:00 +15°C° 0 mm 1 mps 611 mmHg 54%
    07:00 +18°C° 0 mm 1 mps 612 mmHg 44%
    08:00 +21°C° 0 mm 1 mps 613 mmHg 34%
    09:00 +23°C° 0 mm 1 mps 614 mmHg 29%
    10:00 +25°C° 0 mm 1 mps 614 mmHg 24%
    11:00 +27°C° 0 mm 2 mps 614 mmHg 18%
    12:00 +28°C° 0 mm 2 mps 614 mmHg 17%
    13:00 +29°C° 0 mm 2 mps 613 mmHg 16%
    14:00 +29°C° 0 mm 2 mps 612 mmHg 14%
    15:00 +29°C° 0 mm 2 mps 612 mmHg 15%
    16:00 +29°C° 0 mm 2 mps 612 mmHg 16%
    17:00 +29°C° 0 mm 2 mps 612 mmHg 16%
    18:00 +26°C° 0 mm 2 mps 611 mmHg 23%
    19:00 +24°C° 0 mm 2 mps 611 mmHg 30%
    20:00 +21°C° 0 mm 1 mps 610 mmHg 38%
    21:00 +21°C° 0 mm 1 mps 610 mmHg 40%
    22:00 +20°C° 0 mm 1 mps 610 mmHg 42%
    23:00 +19°C° 0 mm 1 mps 610 mmHg 44%

    2 March, Monday

    Time Temperature Precipitation Wind Pressure Humidity
    00:00 +19°C° 0 mm 1 mps 610 mmHg 45%
    01:00 +18°C° 0 mm 1 mps 609 mmHg 46%
    02:00 +16°C° 0 mm 0 mps 609 mmHg 46%
    03:00 +15°C° 0 mm 0 mps 609 mmHg 46%
    04:00 +16°C° 0 mm 1 mps 608 mmHg 45%
    05:00 +16°C° 0 mm 1 mps 608 mmHg 45%
    06:00 +19°C° 0 mm 1 mps 610 mmHg 38%
    07:00 +21°C° 0 mm 1 mps 611 mmHg 32%
    08:00 +23°C° 0 mm 1 mps 612 mmHg 26%
    09:00 +25°C° 0 mm 2 mps 612 mmHg 23%
    10:00 +27°C° 0 mm 3 mps 613 mmHg 20%
    11:00 +29°C° 0 mm 4 mps 613 mmHg 17%
    12:00 +30°C° 0 mm 4 mps 612 mmHg 16%
    13:00 +30°C° 0 mm 5 mps 612 mmHg 15%
    14:00 +32°C° 0 mm 6 mps 611 mmHg 14%
    15:00 +32°C° 0 mm 6 mps 611 mmHg 15%
    16:00 +30°C° 0 mm 6 mps 610 mmHg 16%
    17:00 +29°C° 0 mm 6 mps 610 mmHg 17%
    18:00 +28°C° 0 mm 5 mps 610 mmHg 20%
    19:00 +26°C° 0 mm 4 mps 610 mmHg 23%
    20:00 +25°C° 0 mm 4 mps 610 mmHg 27%
    21:00 +23°C° 0 mm 4 mps 610 mmHg 29%
    22:00 +22°C° 0 mm 4 mps 610 mmHg 32%
    23:00 +21°C° 0 mm 5 mps 610 mmHg 34%
    Show more